| time (UTC) | temp C | wind direction | speed KPH | gust KPH | rain 1hr cm | rain 24hr cm | rain mn cm | humidity % | barometer mb |
| 20260504044546 | 8 | 264 | 0.0 | 0.0 | 0.00 | 0.00 | 0.00 | 63 | 1014.4 |
| 20260504043036 | 8 | 260 | 0.0 | 0.0 | 0.00 | 0.00 | 0.00 | 63 | 1014.3 |
| 20260504041545 | 8 | 258 | 0.0 | 3.2 | 0.00 | 0.00 | 0.00 | 64 | 1014.3 |
| 20260504040046 | 9 | 256 | 0.0 | 0.0 | 0.00 | 0.00 | 0.00 | 63 | 1014.3 |
| 20260504034550 | 9 | 260 | 0.0 | 0.0 | 0.00 | 0.00 | 0.00 | 62 | 1014.1 |
| 20260504033051 | 10 | 263 | 0.0 | 0.0 | 0.00 | 0.00 | 0.00 | 60 | 1013.9 |
| 20260504031602 | 10 | 263 | 0.0 | 0.0 | 0.00 | 0.00 | 0.00 | 60 | 1013.8 |
| 20260504030025 | 10 | 265 | 0.0 | 0.0 | 0.00 | 0.00 | 0.00 | 58 | 1013.8 |
| 20260504024600 | 10 | 265 | 0.0 | 0.0 | 0.00 | 0.00 | 0.00 | 58 | 1013.7 |
| 20260504023028 | 11 | 265 | 0.0 | 0.0 | 0.00 | 0.00 | 0.00 | 57 | 1013.8 |
| 20260504021558 | 11 | 267 | 0.0 | 0.0 | 0.00 | 0.00 | 0.00 | 55 | 1013.6 |
| 20260504020036 | 11 | 267 | 0.0 | 0.0 | 0.00 | 0.00 | 0.00 | 54 | 1013.7 |
| 20260504014544 | 12 | 267 | 0.0 | 0.0 | 0.00 | 0.00 | 0.00 | 52 | 1013.6 |
| 20260504013041 | 12 | 267 | 0.0 | 0.0 | 0.00 | 0.00 | 0.00 | 51 | 1013.5 |
| 20260504011544 | 12 | 267 | 0.0 | 0.0 | 0.00 | 0.00 | 0.00 | 46 | 1013.4 |
| 20260504010039 | 13 | 267 | 0.0 | 0.0 | 0.00 | 0.00 | 0.00 | 45 | 1013.4 |
| 20260504004600 | 13 | 267 | 0.0 | 0.0 | 0.00 | 0.00 | 0.00 | 42 | 1013.2 |
| 20260504003042 | 15 | 267 | 0.0 | 0.0 | 0.00 | 0.00 | 0.00 | 41 | 1013.1 |
| 20260504001559 | 15 | 267 | 0.0 | 0.0 | 0.00 | 0.00 | 0.00 | 37 | 1012.9 |
| 20260504000028 | 15 | 265 | 0.0 | 3.2 | 0.00 | 0.00 | 0.00 | 36 | 1012.8 |
| 20260503234555 | 16 | 282 | 0.0 | 1.6 | 0.00 | 0.00 | 0.00 | 34 | 1012.7 |
| 20260503233030 | 16 | 256 | 0.0 | 0.0 | 0.00 | 0.00 | 0.00 | 34 | 1012.5 |
| 20260503231556 | 16 | 292 | 0.0 | 16.1 | 0.00 | 0.00 | 0.00 | 32 | 1012.4 |
| 20260503230032 | 17 | 296 | 0.0 | 17.7 | 0.00 | 0.00 | 0.00 | 32 | 1012.4 |
| 20260503224558 | 17 | 296 | 0.0 | 19.3 | 0.00 | 0.00 | 0.00 | 33 | 1012.5 |
| 20260503223029 | 17 | 255 | 0.0 | 16.1 | 0.00 | 0.00 | 0.00 | 31 | 1012.4 |
| 20260503221559 | 17 | 269 | 0.0 | 20.9 | 0.00 | 0.00 | 0.00 | 32 | 1012.4 |
| 20260503220039 | 17 | 281 | 0.0 | 12.9 | 0.00 | 0.00 | 0.00 | 32 | 1012.7 |
| 20260503214544 | 16 | 237 | 1.6 | 22.5 | 0.00 | 0.00 | 0.00 | 32 | 1012.5 |
| 20260503213035 | 16 | 242 | 6.4 | 25.7 | 0.00 | 0.00 | 0.00 | 31 | 1012.4 |
| 20260503211546 | 17 | 290 | 0.0 | 17.7 | 0.00 | 0.00 | 0.00 | 31 | 1012.5 |
| 20260503210039 | 16 | 267 | 3.2 | 20.9 | 0.00 | 0.00 | 0.00 | 31 | 1012.5 |
| 20260503204547 | 16 | 300 | 3.2 | 19.3 | 0.00 | 0.00 | 0.00 | 33 | 1012.6 |
| 20260503203040 | 16 | 21 | 1.6 | 20.9 | 0.00 | 0.00 | 0.00 | 34 | 1012.8 |
| 20260503201549 | 16 | 340 | 0.0 | 25.7 | 0.00 | 0.00 | 0.00 | 34 | 1012.9 |
| 20260503200028 | 16 | 279 | 4.8 | 29.0 | 0.00 | 0.00 | 0.00 | 35 | 1013.1 |
| 20260503194555 | 16 | 336 | 0.0 | 12.9 | 0.00 | 0.00 | 0.00 | 35 | 1013.3 |
| 20260503193036 | 15 | 300 | 1.6 | 24.1 | 0.00 | 0.00 | 0.00 | 37 | 1013.5 |
| 20260503191558 | 15 | 323 | 0.0 | 17.7 | 0.00 | 0.00 | 0.00 | 36 | 1013.6 |
| 20260503190047 | 15 | 252 | 8.0 | 24.1 | 0.00 | 0.00 | 0.00 | 36 | 1013.7 |
| 20260503184558 | 15 | 262 | 0.0 | 12.9 | 0.00 | 0.00 | 0.00 | 37 | 1013.9 |
| 20260503183037 | 15 | 343 | 0.0 | 22.5 | 0.00 | 0.00 | 0.00 | 38 | 1014.2 |
| 20260503181547 | 14 | 290 | 3.2 | 22.5 | 0.00 | 0.00 | 0.00 | 38 | 1014.2 |
| 20260503180024 | 13 | 302 | 1.6 | 19.3 | 0.00 | 0.00 | 0.00 | 39 | 1014.4 |
| 20260503174607 | 13 | 234 | 1.6 | 29.0 | 0.00 | 0.00 | 0.00 | 40 | 1014.5 |
| 20260503173028 | 13 | 243 | 6.4 | 33.8 | 0.00 | 0.00 | 0.00 | 39 | 1014.5 |
| 20260503171558 | 13 | 344 | 0.0 | 30.6 | 0.00 | 0.00 | 0.00 | 40 | 1014.7 |
| 20260503081553 | 6 | 284 | 0.0 | 11.3 | 0.00 | 0.00 | 0.00 | 71 | 1012.7 |
| 20260503071554 | 6 | 265 | 0.0 | 4.8 | 0.00 | 0.00 | 0.00 | 71 | 1012.2 |